This is the latest recevied weather packets stored in our database for station/object K8RLH. If no packets are shown the sender has not sent any weather packets the latest 10 day(s).
| Time | Temp. | Humidity | Pressure | Rain* | Wind** | Luminosity | Snow |
|---|---|---|---|---|---|---|---|
| 1777939173 | 21.67° C | 43% | 1016.5 hPa | 0 mm | - | 6 W/m² | - |
| 1777938871 | 22.22° C | 41% | 1016.4 hPa | 0 mm | - | 9 W/m² | - |
| 1777938566 | 22.22° C | 41% | 1016.3 hPa | 0 mm | - | 11 W/m² | - |
| 1777938264 | 22.22° C | 42% | 1016.3 hPa | 0 mm | - | 12 W/m² | - |
| 1777937961 | 22.78° C | 40% | 1016.4 hPa | 0 mm | - | 14 W/m² | - |
| 1777937656 | 22.78° C | 40% | 1016.1 hPa | 0 mm | - | 17 W/m² | - |
| 1777937354 | 22.78° C | 40% | 1016.1 hPa | 0 mm | - | 21 W/m² | - |
| 1777937051 | 23.33° C | 38% | 1016.3 hPa | 0 mm | - | 25 W/m² | - |
| 1777936748 | 23.33° C | 38% | 1016.1 hPa | 0 mm | - | 28 W/m² | - |
| 1777936444 | 23.33° C | 37% | 1016 hPa | 0 mm | - | 29 W/m² | - |
| 1777936140 | 23.89° C | 36% | 1016.1 hPa | 0 mm | - | 28 W/m² | - |
| 1777935837 | 23.89° C | 36% | 1016.4 hPa | 0 mm | - | 33 W/m² | - |
| 1777935536 | 23.89° C | 35% | 1016 hPa | 0 mm | - | 34 W/m² | - |
| 1777935232 | 23.89° C | 34% | 1016 hPa | 0 mm | - | 38 W/m² | - |
| 1777934930 | 23.89° C | 34% | 1016.1 hPa | 0 mm | - | 44 W/m² | - |
| 1777934626 | 23.89° C | 33% | 1016.3 hPa | 0 mm | - | 47 W/m² | - |
| 1777934323 | 24.44° C | 32% | 1016.1 hPa | 0 mm | - | 46 W/m² | - |
| 1777934019 | 24.44° C | 35% | 1016.1 hPa | 0 mm | - | 45 W/m² | - |
| 1777933715 | 24.44° C | 34% | 1016.3 hPa | 0 mm | - | 49 W/m² | - |
| 1777933412 | 24.44° C | 34% | 1016.1 hPa | 0 mm | - | 52 W/m² | - |
| 1777933111 | 24.44° C | 34% | 1016.4 hPa | 0 mm | - | 62 W/m² | - |
| 1777932807 | 24.44° C | 33% | 1016.4 hPa | 0 mm | - | 74 W/m² | - |
| 1777932504 | 24.44° C | 35% | 1016.5 hPa | 0 mm | - | 85 W/m² | - |
| 1777932201 | 24.44° C | 35% | 1016.1 hPa | 0 mm | - | 86 W/m² | - |
| 1777931899 | 24.44° C | 32% | 1016 hPa | 0 mm | - | 105 W/m² | - |
* Rain latest hour (hover to see other rain measurements)
** Current wind speed in m/s (hover to see current wind gust speed)